Regional Weather Roundup
Issued by NWS Charleston, SC

Current Version | Previous Version | Graphics & Text | Print | Product List | Glossary On
Versions: 1 2 3 4 5 6 7 8 9 10 11 12 13 14 15 16 17 18 19 20 21 22 23 24 25 26 27 28 29 30 31 32 33 34 35 36 37 38 39 40 41 42 43 44 45 46 47 48 49 50
000
ASUS42 KCHS 280325
RWRCHS

REGIONAL WEATHER ROUNDUP
NATIONAL WEATHER SERVICE CHARLESTON SC
1000 PM EST TUE JAN 27 2015

NOTE: "FAIR" INDICATES FEW OR NO CLOUDS BELOW 12,000 FEET WITH NO
SIGNIFICANT WEATHER AND/OR OBSTRUCTIONS TO VISIBILITY.

NOT ALL STATIONS ARE QUALITY CONTROLLED BY THE NATIONAL
WEATHER SERVICE. USE DATA WITH CAUTION...ESPECIALLY
DEWPOINT OBSERVATIONS.

SCZ027-030-031-034>040-042>050-280400-
...SOUTHEAST SOUTH CAROLINA...

CITY           SKY/WX    TMP DP  RH WIND       PRES   REMARKS
N CHARLESTON   CLEAR     36  29  75 CALM      29.99R
WATERFRONT PRK   N/A     43 N/A N/A SW3         N/A
MOUNT PLEASANT LGT RAIN N/A N/A N/A CALM      29.98R
PINOPOLIS      NOT AVBL
MONCKS CORNER  FAIR      34  30  86 CALM      29.98R
SUMMERVILLE    NOT AVBL
BEAUFORT MCAS  CLEAR     36  32  85 SW6       30.00R WCI  31
BEAUFORT ARPT  FAIR      37  36  93 CALM      29.99S
HILTON HEAD IS CLEAR     37  34  87 W5        30.01S WCI  34
WALTERBORO     MOCLDY    34  34 100 CALM      30.00R
ALLENDALE      FAIR      43  30  61 VRB5      30.01R

...SOUTHERN MIDLANDS AND PEE DEE...

CITY           SKY/WX    TMP DP  RH WIND       PRES   REMARKS
GEORGETOWN     NOT AVBL
KINGSTREE      NOT AVBL
ORANGEBURG     CLEAR     39  28  64 NW6       30.00R WCI  35
BARNWELL         N/A     36  32  87 NW3       30.02R
AIKEN          FAIR      37  28  70 NW3       30.05R
MANNING        FAIR      34  30  86 CALM      29.99R
COLUMBIA       CLEAR     42  25  50 NW8       30.00R
SUMTER         CLEAR     40  24  54 NW6       29.97R WCI  35
FLORENCE       CLEAR     37  22  54 NW7       29.97R WCI  32
MYRTLE BEACH   CLEAR     36  25  64 W7        29.98R WCI  30
N MYRTLE BEACH CLEAR     35  27  72 W3        29.95R

$$

GAZ063-065-086>088-099>101-113>116-118-119-134>141-150-280400-
...SOUTHEAST GEORGIA...

CITY           SKY/WX    TMP DP  RH WIND       PRES   REMARKS
SAVANNAH ARPT  CLEAR     39  31  72 W7        30.02R WCI  34
HUNTER AAF     CLEAR     39  31  74 W9        29.99R WCI  33
FORT STEWART   CLEAR     37  31  81 CALM      30.01R
STATESBORO     CLEAR     34  32  92 CALM      30.03R
SYLVANIA       CLEAR     43  32  64 NW9       30.02S
CLAXTON        FAIR      43  34  70 NW8       30.03R

...CSRA...CENTRAL AND FAR SOUTHEAST GEORGIA...

CITY           SKY/WX    TMP DP  RH WIND       PRES   REMARKS
THOMSON        CLEAR     41  32  69 NW8       30.08R
AUGUSTA-BUSH   CLEAR     43  27  53 NW14      30.03R
AUGUSTA-DANIEL CLEAR     43  27  53 NW12      30.02R
SWAINSBORO     FAIR      43  25  49 NW6       30.05R
VIDALIA        CLEAR     43  32  65 NW8       30.04R
EASTMAN        FAIR      39  32  75 CALM      30.09R
HAZLEHURST     FAIR      44  32  63 NW5       30.05R
ALMA           CLEAR     38  31  76 CALM      30.04R
WAYCROSS       CLEAR     47  34  61 NW5       30.05S
JESUP          FAIR      37  36  93 CALM      30.04R
BAXLEY         FAIR      43  32  65 NW5       30.04R
BRUNSWICK      CLEAR     39  34  81 W3        30.04R
SAINT SIMONS   CLEAR     42  34  73 W3        30.03R

$$

SCZ027-028-034-036>038-045-046-048>050-GAZ119-141-280400-
...LAKE AND SUPPLEMENTAL COASTAL OBSERVATIONS...

STATION/POSITION TIME  TEMP    WIND        PRES    WAVE   SWELL
                       AIR SEA DIR/SP/G            HT/PER HT/PER/DIR
                 (UTC) (F)     (DEG/KT/KT) (MB)    (FT/S) (FT/S/D)
UPR LAKE MARION  NOT AVBL
WINYAH BAY       0245   37     280/  2     1013.0S
LAKE MURRAY      0200   40     330/  3/  8 1014.9R
ACE BASIN NERRS  NOT AVBL
FORT PULASKI     0300   45 52  260/  7/  8 1016.3R
SAPELO ISLAND    0300   45     270/  4     1016.0S

$$

ANZ835-935-AMZ111-154-330-350-352-354-370-450-454-472-280400-
...C-MAN AND BUOY OBSERVATIONS...

STATION/POSITION TIME  TEMP    WIND        PRES    WAVE   SWELL
                       AIR SEA DIR/SP/G            HT/PER HT/PER/DIR
                 (UTC) (F)     (DEG/KT/KT) (MB)    (FT/S) (FT/S/D)
BUOY 41004       0250   50 67  310/ 16/ 19 1014.7R   4/ 5   2/ 9
BUOY 41008       0250   51 54  320/ 16/ 19 1016.0R   2/ 4
FOLLY BEACH CMAN 0300   41     250/  3/  4 1015.8R
CAPERS NEARSHORE 0200   47     300/  6/  8   N/A
FRIPP NEARSHORE  0200   48     300/  6/  6   N/A


STATION/POSITION TIME  TEMP    WIND        PRES    WAVE   SWELL
                       AIR SEA DIR/SP/G            HT/PER HT/PER/DIR
                 (UTC) (F)     (DEG/KT/KT) (MB)    (FT/S) (FT/S/D)
5E ST. MARYS GA  0222      58                N/A     2/ 4
FRYING PAN BUOY  0250   47 65  320/ 17/ 21 1014.2R   5/ 5   2/10
BUOY 41025       0250   40 69  330/ 19/ 23 1011.1R   9/14   7/ 40/14
CAPE LOOKOUT NC  0300   39     320/ 11/ 13 1012.9R
BUOY 41002       0250   57 71  310/ 25/ 33 1009.9R  13/ 8   5/350/12
BUOY 41010       0220   66 75  310/ 17/ 23 1013.2R
ST AUGUSTINE FL  0300   50     330/  6/  7 1017.4R


$$



USA.gov is the U.S. government's official web portal to all federal, state and local government web resources and services.